, MS

(GMT )
Nakika

Weather History for KIKT - March, 2014

Change the Weather History Date:

Wednesday, March 12, 2014

  Actual Average Record
Temperature  
Mean Temperature 70 °F -  
Max Temperature 77 °F - - ()
Min Temperature 62 °F - - ()
Cooling Degree Days 4    
Growing Degree Days 20 (Base 50)    
Moisture  
Dew Point 61 °F    
Average Humidity 76    
Maximum Humidity 94    
Minimum Humidity 55    
Precipitation  
Precipitation 0.00 in - - ()
Sea Level Pressure  
Sea Level Pressure 29.86 in    
Wind  
Wind Speed 11 mph (WNW)    
Max Wind Speed 21 mph    
Max Gust Speed 28 mph    
Visibility 10 miles    
Events      
T = Trace of Precipitation, MM = Missing Value Source: NWS Daily Summary

Daily Weather History Graph

Daily Weather History Graph

Search for Another Location

Airport or City:

Trip Planner

Search our weather history database for the weather conditions in past years. The results will help you decide how hot, cold, wet, or windy it might be!

Date:

Astronomy

Mar. 12, 2014 Rise Set
Actual Time 7:06 AM CDT 6:59 PM CDT
Civil Twilight 6:42 AM CDT 7:23 PM CDT
Nautical Twilight 6:15 AM CDT 7:50 PM CDT
Astronomical Twilight 5:47 AM CDT 8:18 PM CDT
Moon 3:43 PM CDT (3/12) 4:23 AM CDT (3/12)
Length of Visible Light 12h 40m
Length of Day
11h 53m
Waxing Gibbous, 85% of the Moon is Illuminated
Mar 12
Waxing Gibbous
Mar 16
Full
Mar 23
Last Quarter
Mar 30
New
Apr 7
First Quarter

Hourly Weather History & Observations

Time (CDT) Temp. Dew Point Humidity Pressure Visibility Wind Dir Wind Speed Gust Speed Precip Events Conditions
12:00 AM 68.0 °F 64.4 °F 88% 29.78 in 10.0 mi West 10.4 mph - N/A   Mostly Cloudy
12:20 AM 68.0 °F 64.4 °F 88% 29.78 in 10.0 mi West 10.4 mph - N/A   Mostly Cloudy
12:40 AM 69.8 °F 64.4 °F 83% 29.78 in 10.0 mi West 10.4 mph - N/A   Overcast
1:00 AM 68.0 °F 64.4 °F 88% 29.77 in 10.0 mi West 9.2 mph - N/A   Scattered Clouds
1:20 AM 68.0 °F 64.4 °F 88% 29.76 in 10.0 mi West 10.4 mph - N/A   Mostly Cloudy
1:40 AM 68.0 °F 64.4 °F 88% 29.77 in 10.0 mi West 10.4 mph - N/A   Mostly Cloudy
2:00 AM 68.0 °F 64.4 °F 88% 29.76 in 10.0 mi West 10.4 mph - N/A   Mostly Cloudy
2:20 AM 68.0 °F 64.4 °F 88% 29.77 in 10.0 mi West 9.2 mph - N/A   Partly Cloudy
2:40 AM 68.0 °F 64.4 °F 88% 29.76 in 10.0 mi West 10.4 mph - N/A   Partly Cloudy
3:00 AM 68.0 °F 64.4 °F 88% 29.76 in 10.0 mi West 11.5 mph - N/A   Mostly Cloudy
3:20 AM 68.0 °F 64.4 °F 88% 29.76 in 10.0 mi West 11.5 mph - N/A   Mostly Cloudy
3:40 AM 68.0 °F 64.4 °F 88% 29.76 in 10.0 mi West 10.4 mph - N/A   Clear
4:00 AM 68.0 °F 64.4 °F 88% 29.76 in 10.0 mi WSW 11.5 mph 18.4 mph N/A   Clear
4:20 AM 68.0 °F 64.4 °F 88% 29.76 in 10.0 mi West 11.5 mph 19.6 mph N/A   Scattered Clouds
4:40 AM 68.0 °F 66.2 °F 94% 29.76 in 10.0 mi West 17.3 mph 25.3 mph N/A   Scattered Clouds
5:00 AM 69.8 °F 66.2 °F 88% 29.77 in 10.0 mi WNW 15.0 mph 21.9 mph N/A   Clear
5:20 AM 69.8 °F 66.2 °F 88% 29.77 in 10.0 mi West 12.7 mph 20.7 mph N/A   Clear
5:40 AM 69.8 °F 64.4 °F 83% 29.78 in 10.0 mi WNW 10.4 mph 20.7 mph N/A   Clear
6:00 AM 69.8 °F 64.4 °F 83% 29.79 in 10.0 mi West 11.5 mph 20.7 mph N/A   Partly Cloudy
6:20 AM 69.8 °F 64.4 °F 83% 29.79 in 10.0 mi West 11.5 mph 19.6 mph N/A   Clear
6:40 AM 69.8 °F 64.4 °F 83% 29.80 in 10.0 mi West 11.5 mph 21.9 mph N/A   Clear
7:00 AM 69.8 °F 64.4 °F 83% 29.80 in 10.0 mi West 11.5 mph 23.0 mph N/A   Clear
7:20 AM 69.8 °F 64.4 °F 83% 29.81 in 10.0 mi West 12.7 mph 21.9 mph N/A   Clear
7:40 AM 71.6 °F 64.4 °F 78% 29.81 in 10.0 mi West 10.4 mph 21.9 mph N/A   Clear
8:00 AM 73.4 °F 64.4 °F 73% 29.82 in 10.0 mi West 10.4 mph 19.6 mph N/A   Clear
8:20 AM 75.2 °F 64.4 °F 69% 29.83 in 10.0 mi West 11.5 mph 19.6 mph N/A   Clear
8:40 AM 75.2 °F 64.4 °F 69% 29.84 in 10.0 mi West 11.5 mph 18.4 mph N/A   Clear
9:00 AM 77.0 °F 64.4 °F 65% 29.85 in 10.0 mi West 11.5 mph 18.4 mph N/A   Scattered Clouds
9:20 AM 77.0 °F 64.4 °F 65% 29.86 in 10.0 mi Variable 6.9 mph 16.1 mph N/A   Mostly Cloudy
9:40 AM 73.4 °F 66.2 °F 78% 29.87 in 9.0 mi WNW 9.2 mph - N/A   Mostly Cloudy
10:00 AM 73.4 °F 64.4 °F 73% 29.88 in 10.0 mi WNW 9.2 mph 16.1 mph N/A   Mostly Cloudy
10:20 AM 75.2 °F 64.4 °F 69% 29.88 in 10.0 mi Variable 5.8 mph 17.3 mph N/A   Mostly Cloudy
10:40 AM 75.2 °F 64.4 °F 69% 29.89 in 10.0 mi Variable 5.8 mph - N/A   Scattered Clouds
11:00 AM 75.2 °F 64.4 °F 69% 29.88 in 10.0 mi Variable 6.9 mph 15.0 mph N/A   Mostly Cloudy
11:20 AM 73.4 °F 62.6 °F 69% 29.88 in 10.0 mi WNW 5.8 mph 12.7 mph N/A   Mostly Cloudy
11:40 AM 73.4 °F 64.4 °F 73% 29.89 in 10.0 mi Variable 6.9 mph 13.8 mph N/A   Scattered Clouds
12:00 PM 73.4 °F 62.6 °F 69% 29.89 in 10.0 mi WNW 8.1 mph 15.0 mph N/A   Clear
12:20 PM 73.4 °F 62.6 °F 69% 29.89 in 10.0 mi WNW 9.2 mph 17.3 mph N/A   Scattered Clouds
12:40 PM 73.4 °F 62.6 °F 69% 29.89 in 10.0 mi WNW 9.2 mph - N/A   Overcast
1:00 PM 73.4 °F 62.6 °F 69% 29.88 in 10.0 mi WNW 10.4 mph - N/A   Overcast
1:20 PM 71.6 °F 62.6 °F 73% 29.88 in 10.0 mi WNW 8.1 mph 18.4 mph N/A   Mostly Cloudy
1:40 PM 71.6 °F 62.6 °F 73% 29.87 in 10.0 mi WNW 8.1 mph 15.0 mph N/A   Mostly Cloudy
2:00 PM 71.6 °F 62.6 °F 73% 29.86 in 10.0 mi WNW 9.2 mph 19.6 mph N/A   Mostly Cloudy
2:20 PM 71.6 °F 62.6 °F 73% 29.85 in 10.0 mi WNW 13.8 mph 24.2 mph N/A   Overcast
2:40 PM 69.8 °F 62.6 °F 78% 29.85 in 10.0 mi NW 13.8 mph 21.9 mph N/A   Overcast
3:00 PM 69.8 °F 62.6 °F 78% 29.85 in 10.0 mi WNW 12.7 mph 23.0 mph N/A   Overcast
3:20 PM 69.8 °F 62.6 °F 78% 29.85 in 10.0 mi NW 15.0 mph 23.0 mph N/A   Overcast
3:40 PM 69.8 °F 60.8 °F 73% 29.86 in 10.0 mi WNW 15.0 mph 21.9 mph N/A   Overcast
4:00 PM 69.8 °F 62.6 °F 78% 29.86 in 10.0 mi WNW 11.5 mph 20.7 mph N/A   Mostly Cloudy
4:20 PM 69.8 °F 60.8 °F 73% 29.86 in 10.0 mi WNW 13.8 mph 21.9 mph N/A   Mostly Cloudy
4:40 PM 69.8 °F 62.6 °F 78% 29.86 in 10.0 mi WNW 9.2 mph 17.3 mph N/A   Overcast
5:00 PM 68.0 °F 62.6 °F 83% 29.87 in 10.0 mi WNW 11.5 mph 17.3 mph N/A   Overcast
5:20 PM 68.0 °F 60.8 °F 78% 29.87 in 9.0 mi NW 17.3 mph 25.3 mph N/A   Overcast
5:40 PM 68.0 °F 60.8 °F 78% 29.87 in 7.0 mi WNW 17.3 mph 25.3 mph N/A   Overcast
6:00 PM 66.2 °F 60.8 °F 83% 29.88 in 7.0 mi NW 20.7 mph 26.5 mph N/A   Overcast
6:20 PM 66.2 °F 60.8 °F 83% 29.89 in 8.0 mi NW 17.3 mph 25.3 mph N/A   Overcast
6:40 PM 66.2 °F 60.8 °F 83% 29.90 in 9.0 mi NW 18.4 mph 26.5 mph N/A   Overcast
7:00 PM 68.0 °F 59.0 °F 73% 29.90 in 9.0 mi WNW 16.1 mph 25.3 mph N/A   Overcast
7:20 PM 66.2 °F 59.0 °F 78% 29.92 in 10.0 mi WNW 16.1 mph 26.5 mph N/A   Overcast
7:40 PM 66.2 °F 59.0 °F 78% 29.93 in 10.0 mi WNW 10.4 mph 25.3 mph N/A   Overcast
8:00 PM 66.2 °F 55.4 °F 68% 29.95 in 10.0 mi Variable 5.8 mph 18.4 mph N/A   Scattered Clouds
8:20 PM 66.2 °F 55.4 °F 68% 29.96 in 10.0 mi Variable 5.8 mph 16.1 mph N/A   Clear
8:40 PM 66.2 °F 53.6 °F 64% 29.97 in 10.0 mi Variable 5.8 mph 12.7 mph N/A   Partly Cloudy
9:00 PM 66.2 °F 51.8 °F 60% 29.98 in 10.0 mi Variable 6.9 mph 12.7 mph N/A   Partly Cloudy
9:20 PM 66.2 °F 51.8 °F 60% 29.99 in 10.0 mi Variable 6.9 mph 13.8 mph N/A   Scattered Clouds
9:40 PM 66.2 °F 50.0 °F 56% 30.01 in 10.0 mi Variable 6.9 mph - N/A   Mostly Cloudy
10:00 PM 64.4 °F 50.0 °F 59% 30.01 in 10.0 mi Variable 6.9 mph 19.6 mph N/A   Overcast
10:20 PM 64.4 °F 50.0 °F 59% 30.02 in 10.0 mi Variable 6.9 mph 18.4 mph N/A   Mostly Cloudy
10:40 PM 64.4 °F 50.0 °F 59% 30.03 in 10.0 mi NNW 8.1 mph 26.5 mph N/A   Mostly Cloudy
11:00 PM 62.6 °F 48.2 °F 59% 30.04 in 10.0 mi North 10.4 mph 27.6 mph N/A   Mostly Cloudy
11:20 PM 62.6 °F 48.2 °F 59% 30.05 in 10.0 mi North 16.1 mph 27.6 mph N/A   Mostly Cloudy
11:40 PM 62.6 °F 46.4 °F 55% 30.06 in 10.0 mi NNW 8.1 mph 21.9 mph N/A   Mostly Cloudy